Location: Castle Hill Houses
(40.8186°N, 73.8497°W)
Time: 20:49:05
(UTC+00:00)

STARLINK-1044 - Pass Details

Date: 26 January 2020
Orbit: 548 x 551 km, 53.0° (Epoch: 16 February)

Event Time Altitude Azimuth Distance (km) Brightness Sun altitude
Exits shadow 09:18:08 19° 65° (ENE) 1,349 6.2 -32.7°
Drops below altitude 10° 09:19:23 10° 59° (ENE) 1,824 6.9 -32.5°
Enters shadow 10:20:49 -61° 237° (WSW) 11,717 10.3 -20.9°
